Precipitable_Water
1.40 1.39 1.35 1.32 1.30 1.31 1.29 1.26 1.26 1.24 1.20 1.19 1.18 1.14 1.10 1.06 0.96 0.84 0.73 0.64 0.57 0.52 0.46 0.40 0.36 0.32 0.29 0.28 0.36 0.48 0.67 0.71
1.43 1.43 1.43 1.38 1.35 1.34 1.32 1.28 1.25 1.22 1.18 1.16 1.10 1.07 1.02 0.90 0.79 0.71 0.61 0.52 0.47 0.42 0.37 0.32 0.29 0.26 0.27 0.35 0.41 0.53 0.69 0.69
1.48 1.47 1.47 1.41 1.35 1.35 1.34 1.30 1.25 1.22 1.17 1.10 1.05 0.98 0.85 0.78 0.70 0.60 0.53 0.47 0.42 0.37 0.33 0.33 0.35 0.32 0.32 0.41 0.47 0.63 0.64 0.65
1.47 1.49 1.49 1.42 1.33 1.32 1.31 1.28 1.23 1.18 1.12 1.01 0.97 0.90 0.78 0.67 0.58 0.52 0.47 0.42 0.37 0.33 0.35 0.40 0.45 0.46 0.42 0.46 0.49 0.57 0.58 0.57
1.46 1.49 1.51 1.42 1.31 1.30 1.27 1.24 1.20 1.14 1.06 0.98 0.95 0.77 0.69 0.56 0.47 0.43 0.42 0.45 0.44 0.44 0.43 0.45 0.44 0.45 0.44 0.45 0.49 0.60 0.59 0.54
1.45 1.47 1.47 1.43 1.35 1.30 1.29 1.23 1.19 1.08 1.00 0.99 0.84 0.70 0.61 0.53 0.54 0.54 0.50 0.50 0.49 0.46 0.44 0.42 0.39 0.42 0.44 0.44 0.49 0.59 0.58 0.50
1.43 1.48 1.46 1.47 1.33 1.30 1.30 1.23 1.17 1.08 0.99 0.93 0.80 0.63 0.56 0.57 0.56 0.51 0.50 0.49 0.46 0.45 0.44 0.44 0.42 0.45 0.46 0.45 0.45 0.53 0.51 0.51
1.48 1.46 1.50 1.49 1.36 1.30 1.30 1.25 1.17 1.09 0.99 0.86 0.73 0.64 0.59 0.56 0.52 0.50 0.48 0.48 0.48 0.47 0.44 0.45 0.47 0.47 0.46 0.48 0.48 0.48 0.50 0.51
1.47 1.47 1.54 1.47 1.37 1.33 1.25 1.19 1.14 1.02 0.92 0.85 0.72 0.66 0.60 0.56 0.51 0.49 0.49 0.50 0.48 0.48 0.47 0.47 0.47 0.52 0.47 0.47 0.46 0.46 0.44 0.45
1.42 1.48 1.50 1.47 1.37 1.31 1.22 1.15 1.08 0.98 0.87 0.80 0.71 0.66 0.61 0.57 0.53 0.52 0.53 0.51 0.48 0.47 0.47 0.47 0.48 0.51 0.50 0.49 0.49 0.48 0.46 0.45
1.35 1.47 1.45 1.44 1.39 1.29 1.25 1.15 1.04 0.96 0.89 0.82 0.73 0.66 0.62 0.59 0.56 0.55 0.55 0.52 0.52 0.50 0.50 0.49 0.48 0.50 0.50 0.49 0.49 0.48 0.48 0.48
1.35 1.42 1.38 1.34 1.35 1.24 1.19 1.07 1.04 0.95 0.89 0.82 0.73 0.67 0.63 0.59 0.59 0.57 0.56 0.54 0.54 0.52 0.50 0.53 0.50 0.50 0.49 0.48 0.49 0.49 0.49 0.47
1.25 1.27 1.28 1.26 1.20 1.11 1.04 0.97 0.98 0.92 0.88 0.82 0.75 0.69 0.64 0.62 0.61 0.59 0.59 0.56 0.56 0.57 0.53 0.51 0.51 0.50 0.48 0.47 0.47 0.49 0.47 0.48
1.23 1.20 1.24 1.22 1.18 1.12 1.07 1.04 1.00 0.95 0.90 0.86 0.77 0.71 0.67 0.65 0.63 0.59 0.59 0.59 0.58 0.58 0.53 0.49 0.49 0.53 0.49 0.48 0.43 0.52 0.56 0.54
1.19 1.17 1.17 1.16 1.16 1.14 1.09 1.06 1.01 0.93 0.88 0.85 0.79 0.76 0.72 0.68 0.66 0.63 0.63 0.65 0.60 0.57 0.56 0.53 0.47 0.51 0.55 0.49 0.42 0.43 0.52 0.57
1.24 1.21 1.18 1.19 1.17 1.12 1.05 0.99 0.92 0.91 0.89 0.90 0.85 0.83 0.77 0.75 0.69 0.69 0.66 0.65 0.61 0.57 0.57 0.55 0.54 0.45 0.49 0.49 0.51 0.52 0.46 0.45
1.24 1.24 1.23 1.21 1.18 1.11 1.04 1.00 0.99 0.99 0.97 0.94 0.93 0.90 0.84 0.77 0.73 0.71 0.67 0.66 0.63 0.58 0.55 0.55 0.56 0.53 0.46 0.43 0.43 0.42 0.45 0.42
1.26 1.21 1.22 1.25 1.20 1.14 1.06 1.00 0.97 0.95 0.97 0.98 0.96 0.93 0.89 0.81 0.77 0.74 0.72 0.68 0.63 0.61 0.58 0.55 0.54 0.55 0.54 0.51 0.47 0.43 0.44 0.41
1.29 1.26 1.19 1.21 1.18 1.14 1.08 1.01 1.00 0.97 0.98 1.00 0.99 0.96 0.93 0.88 0.81 0.76 0.74 0.69 0.66 0.62 0.58 0.56 0.54 0.52 0.51 0.50 0.49 0.49 0.50 0.46
1.22 1.18 1.12 1.15 1.14 1.14 1.13 1.08 1.05 1.03 0.99 1.01 1.03 1.03 0.97 0.94 0.84 0.81 0.77 0.70 0.66 0.62 0.59 0.56 0.56 0.54 0.52 0.52 0.49 0.49 0.49 0.45
Wind_Speed
17 16 16 15 14 12 10 9 8 8 8 8 8 7 7 7 6 6 5 5 5 4 4 4 4 4 4 4 5 6 6 8
18 18 17 17 16 14 13 11 10 9 9 9 9 8 8 8 8 7 7 6 6 6 6 5 5 5 5 5 6 7 6 9
20 20 19 19 17 16 15 13 12 11 11 10 10 10 10 9 9 9 8 8 8 8 7 7 6 6 7 8 8 7 9 10
22 22 21 21 20 18 17 15 14 13 12 12 12 12 12 11 10 10 10 9 9 9 9 9 10 10 10 10 10 9 10 12
23 23 23 23 22 21 19 18 16 15 14 14 14 13 13 12 12 12 11 11 11 11 11 11 11 11 11 11 11 11 12 13
25 25 25 24 24 23 21 20 19 18 17 17 16 16 16 15 14 14 14 14 13 13 13 12 12 13 13 13 13 13 13 14
29 28 28 27 26 25 23 22 21 20 19 19 18 17 18 18 17 16 16 16 15 15 15 14 14 14 14 14 15 15 15 15
32 31 30 30 28 28 26 25 23 22 21 20 20 19 19 19 19 18 18 17 17 17 17 17 16 16 15 15 15 16 16 16
35 34 33 33 31 30 28 27 26 24 23 23 22 21 21 21 20 20 20 19 19 19 18 18 18 18 17 17 17 17 18 19
36 36 36 35 33 32 31 29 28 26 25 25 25 24 24 23 22 22 21 21 21 20 20 20 19 19 19 19 18 19 19 20
36 37 37 36 35 34 33 32 30 29 27 27 27 26 26 25 24 23 23 22 22 22 22 21 21 20 20 20 20 20 20 21
35 36 37 36 36 35 35 33 32 31 30 29 29 28 28 27 25 25 24 24 23 23 23 22 22 22 21 21 21 21 22 22
35 35 36 36 36 36 36 35 34 33 32 31 31 30 30 28 27 27 26 25 25 24 24 24 23 22 21 22 22 23 23 23
36 37 37 37 37 37 37 36 36 34 33 32 32 31 31 30 29 28 27 26 26 25 25 24 24 24 23 23 23 24 24 24
38 38 38 37 38 38 38 37 36 36 35 33 33 33 32 31 30 29 28 28 27 26 26 25 24 25 25 24 24 25 23 25
36 37 38 38 38 38 39 38 38 37 36 34 33 33 33 32 31 30 29 28 27 27 27 26 26 25 25 26 25 25 25 26
33 35 37 38 39 38 39 39 38 37 36 35 34 34 33 33 32 31 31 30 29 28 27 27 26 26 26 26 27 27 28 28
30 32 34 36 37 37 38 38 37 36 37 37 36 36 35 35 34 33 32 31 30 29 29 28 28 27 27 27 27 28 28 28
27 30 33 35 36 36 36 36 37 37 38 38 37 37 38 37 36 35 35 33 32 31 30 30 29 29 29 28 29 29 29 29
27 29 30 33 34 36 37 37 37 37 37 37 37 37 38 38 37 36 36 35 34 33 32 31 31 31 30 30 30 30 31 29
Wind_Direction
222 221 222 222 224 226 228 229 229 227 225 225 223 219 214 213 213 217 221 226 228 234 244 255 265 273 283 295 301 316 322 323
226 225 224 224 226 228 229 231 231 233 232 226 223 221 221 219 222 228 234 239 243 247 253 256 262 270 277 286 296 302 320 325
229 227 226 226 227 228 230 231 233 236 233 228 226 228 225 227 231 234 241 246 249 251 253 255 262 274 275 283 287 296 305 317
230 229 229 227 228 228 229 231 234 237 236 233 233 231 232 235 238 241 245 247 250 251 254 260 264 269 275 279 282 288 302 311
230 230 229 229 230 229 232 233 235 239 239 236 240 234 234 241 243 246 248 250 252 255 261 264 267 271 273 277 278 284 295 304
233 232 230 229 230 231 233 236 237 240 239 241 240 240 241 245 248 249 251 254 256 257 262 265 267 270 273 275 281 280 290 300
233 233 231 231 231 232 236 238 239 240 240 242 241 244 245 246 249 251 253 255 257 260 262 264 267 269 272 274 276 283 286 295
235 234 232 233 233 234 237 238 239 241 241 242 242 245 247 249 250 253 254 256 257 259 262 265 267 268 270 273 277 281 288 291
237 235 234 234 235 235 237 238 240 242 242 242 245 247 247 250 252 253 254 256 258 260 262 264 266 267 270 271 274 279 286 293
237 236 235 234 236 237 238 239 241 242 243 243 245 248 248 251 253 254 254 256 257 261 262 264 266 268 269 271 273 278 284 291
235 234 234 234 236 237 238 240 240 243 244 246 246 248 249 251 252 254 253 256 258 259 261 263 264 266 268 270 272 277 281 289
234 234 234 235 237 237 238 239 241 243 245 247 247 248 248 250 251 252 253 256 258 259 260 263 264 265 267 270 273 277 281 286
233 233 233 234 236 236 237 239 241 243 246 247 247 248 247 250 251 252 254 255 257 259 260 261 263 264 267 270 273 276 279 284
235 235 234 236 237 237 239 240 243 245 246 247 247 247 247 249 251 251 253 255 257 258 258 260 262 262 267 269 273 275 278 282
238 236 236 236 238 239 240 241 243 244 246 247 247 246 247 248 249 251 253 255 257 257 258 260 263 264 266 270 273 276 275 279
239 238 237 238 238 240 240 241 243 245 245 246 246 245 246 247 247 250 252 255 257 258 259 261 263 265 266 269 274 278 281 284
241 238 238 239 239 241 241 242 243 244 244 244 245 245 244 245 247 250 252 254 257 258 259 260 263 265 267 269 272 275 279 284
239 239 239 238 239 240 240 240 241 243 243 244 245 244 244 246 248 250 251 255 256 258 260 262 264 267 268 270 273 276 278 281
240 242 242 240 239 240 241 241 241 243 244 245 245 244 244 247 248 250 252 255 256 258 260 262 264 266 269 271 274 276 279 281
243 246 244 242 242 240 242 243 243 245 245 245 246 246 247 247 249 251 252 254 256 258 260 262 265 267 269 271 273 275 277 278